Regional Weather Roundup
Issued by NWS Little Rock, AR

Home | Current Version | Previous Version | Graphics & Text | Print | Product List | Glossary On
Versions: 1 2 3 4 5 6 7 8 9 10 11 12 13 14 15 16 17 18 19 20 21 22 23 24 25 26 27
000
ASUS44 KLZK 190105
RWRLZK

WEATHER ROUNDUP FOR ARKANSAS
NATIONAL WEATHER SERVICE LITTLE ROCK AR
800 PM CDT FRI APR 18 2014

NOTE: "FAIR" INDICATES FEW OR NO CLOUDS BELOW 12,000 FEET WITH NO
SIGNIFICANT WEATHER AND/OR OBSTRUCTIONS TO VISIBILITY.

ARZ001-003-010-029-190200-
NORTHWEST ARKANSAS

CITY           SKY/WX    TMP DP  RH WIND       PRES   REMARKS
FAYETTEVILLE   MOCLDY    67  41  38 SE5       30.14R
FORT SMITH     CLEAR     71  41  33 SE3       30.12S
HARRISON       CLEAR     65  39  38 E3        30.16S
BENTONVILLE    CLEAR     66  39  37 E6        30.15S
ROGERS         CLEAR     67  38  34 E7        30.15S
SILOAM SPGS    CLEAR     66  43  42 CALM      30.15S
HIGHFILL       CLEAR     66  41  40 CALM      30.13F
SPRINGDALE     CLEAR     66  41  39 NE5       30.15F
$$

ARZ004-005-016-190200-
NORTH CENTRAL ARKANSAS

CITY           SKY/WX    TMP DP  RH WIND       PRES   REMARKS
BATESVILLE     CLEAR     64  46  52 E6        30.16S
FLIPPIN        CLEAR     68  37  32 CALM      30.15S
MTN HOME       CLEAR     67  36  31 CALM      30.14S
$$

ARZ040-041-190200-
WEST CENTRAL ARKANSAS

CITY           SKY/WX    TMP DP  RH WIND       PRES   REMARKS
MENA           CLEAR     64  45  48 E3        30.15R
MOUNT IDA      CLEAR     64  46  52 CALM      30.13R
$$

ARZ009-017-025-026-028-190200-
NORTHEAST ARKANSAS

CITY           SKY/WX    TMP DP  RH WIND       PRES   REMARKS
CORNING        FAIR      64  46  52 E7        30.18R
JONESBORO      CLEAR     65  46  50 NE3       30.17R
NEWPORT        CLEAR     65  51  60 E7        30.18R
WALNUT RIDGE   CLEAR     64  48  55 E7        30.17S
BLYTHEVILLE    MOCLDY    64  54  69 E6        30.17S
$$

ARZ022-023-033-042-044-190200-
CENTRAL ARKANSAS

CITY           SKY/WX    TMP DP  RH WIND       PRES   REMARKS
LITTLE ROCK    PTCLDY    65  46  50 E6        30.16R
N LITTLE ROCK  PTCLDY    64  49  58 E3        30.16R
JACKSONVILLE   CLEAR     63  49  61 E5        30.16R
SEARCY         CLEAR     67  48  50 VRB5      30.17S
HOT SPRINGS    CLOUDY    69  45  41 E3        30.15R
RUSSELLVILLE   CLEAR     63  48  58 CALM      30.14R
CLINTON        FAIR      66  48  52 CALM      30.16R
$$

ARZ036-190200-
EAST ARKANSAS

CITY           SKY/WX    TMP DP  RH WIND       PRES   REMARKS
WEST MEMPHIS   CLOUDY    67  52  58 NE8       30.15R
$$

ARZ050-053-066-070-073-190200-
SOUTHWEST ARKANSAS

CITY           SKY/WX    TMP DP  RH WIND       PRES   REMARKS
ARKADELPHIA    FAIR      64  57  78 CALM      30.15R
CAMDEN         CLOUDY    64  54  68 MISG      30.14R
TEXARKANA      CLEAR     65  49  56 CALM      30.14R
EL DORADO      PTCLDY    60  54  80 CALM      30.14R
DE QUEEN       CLEAR     67  48  50 SE7       30.11R
$$

ARZ056-057-069-190200-
SOUTHEAST ARKANSAS

CITY           SKY/WX    TMP DP  RH WIND       PRES   REMARKS
PINE BLUFF     CLEAR     66  50  56 NE5       30.15S
STUTTGART      MOCLDY    66  50  55 NE5       30.16R
MONTICELLO     MOCLDY    66  53  63 CALM      30.13S

$$





USA.gov is the U.S. government's official web portal to all federal, state and local government web resources and services.